Regional Weather Roundup
Issued by NWS Midland/Odessa, TX

Home | Current Version | Previous Version | Text Only | Print | Product List | Glossary On
Versions: 1 2 3 4 5 6 7 8 9 10 11 12 13 14 15 16 17 18 19 20 21 22 23 24 25 26 27 28 29 30 31 32 33 34 35 36 37 38 39 40 41 42 43 44 45 46 47 48 49 50
000
ASUS44 KMAF 261910
RWRMAF
MIDLAND AREA WEATHER ROUNDUP
NATIONAL WEATHER SERVICE MIDLAND TX
100 PM CST SUN FEB 26 2017

...IN SOUTHWEST TEXAS AND SOUTHEAST NEW MEXICO...

CITY           SKY/WX    TMP DP  RH WIND       PRES   REMARKS
ALPINE         SUNNY     69  18  14 W20G25    30.00F
ANDREWS        FAIR      67  17  14 W5        29.89F
ARTESIA        MOSUNNY   63  16  16 E8        29.88F
BIG SPRING     SUNNY     66  23  19 W10G21    29.91F
CARLSBAD       MOSUNNY   66   8  10 W21       29.86F
DRYDEN           N/A     66  35  31 VRB3      29.90F
FORT STOCKTON  SUNNY     72  12  10 N7        29.91F
GUAD PASS      MOSUNNY   60   9  13 SW31G43     N/A
HOBBS          SUNNY     63   9  12 W6        29.90F
MARFA          CLOUDY    66  17  15 W18G25    29.98F
MIDLAND AIRPK  SUNNY     68  17  14 SW6       29.90F
MIDLAND INTL   SUNNY     68  15  13 SW15      29.89F
ODESSA         MOSUNNY   69  14  12 W12       29.90F
PECOS          MOSUNNY   73  12   9 W14       29.89F
PRESIDIO       FAIR      70  10  10 SE3       29.94F
SEMINOLE       SUNNY     64  14  14 CALM      29.90F
SNYDER         SUNNY     63  28  27 W8        29.90F
WINK           PTSUNNY   71  11  10 W14G20    29.87F
$$
...OTHER STATIONS IN TEXAS...

CITY           SKY/WX    TMP DP  RH WIND       PRES   REMARKS
ABILENE        MOSUNNY   67  47  48 SW15      29.89F
AMARILLO       SUNNY     54   8  16 CALM      29.87F
AUSTIN         CLOUDY    63  50  62 CALM      29.96F
BROWNSVILLE    CLOUDY    79  66  65 SE21G28   29.92F
CORPUS CHRISTI LGT RAIN  77  65  66 SE24      29.93F
DALLAS FTW     CLOUDY    62  46  55 S13       29.93F
DEL RIO        SUNNY     66  53  63 S8        29.92F
EL PASO        PTSUNNY   64   8  11 SW20      29.92F
HOUSTON INT    PTSUNNY   72  57  59 SE17      30.00F
LUBBOCK        MOSUNNY   64  11  12 NW17G23   29.87F
SAN ANGELO     SUNNY     71  49  45 S17G26    29.89F
SAN ANTONIO    CLOUDY    67  60  78 S9        29.95F
WACO           CLOUDY    59  49  69 S10       29.97F
WICHITA FALLS  NOT AVBL
$$
...OTHER LOCATIONS IN NEW MEXICO...

CITY           SKY/WX    TMP DP  RH WIND       PRES   REMARKS
ALAMAGORDO     CLOUDY    55  10  16 S8        29.93F
ALBUQUERQUE    PTSUNNY   44  19  36 VRB3      29.94F
CANNON AFB     PTSUNNY   55  14  20 W28G33    29.87F
CLOVIS         PTSUNNY   57  18  21 W26G37    29.87F
HOLLOMAN AFB   CLOUDY    57   4  12 S9        29.96F
ROSWELL        MOSUNNY   60   9  13 E3          N/A
RUIDOSO        MOSUNNY   48   7  18 W25G35    29.93F
SANTA FE       MOSUNNY   42  15  33 W13G22    29.90F WCI  35
TRUTH OR CONSE CLOUDY    55   9  16 SE6       29.90F
TUCUMCARI      CLOUDY    55  16  21 W9G22     29.85F
$$



USA.gov is the U.S. government's official web portal to all federal, state and local government web resources and services.